TimePDT,TemperatureF,Dew PointF,Humidity,Sea Level PressureIn,VisibilityMPH,Wind Direction,Wind SpeedMPH,Gust SpeedMPH,PrecipitationIn,Events,Conditions,WindDirDegrees,DateUTC
12:15 AM,48.2,42.8,82,29.97,10.0,NE,9.2,-,N/A,,Clear,50,2013-09-20 07:15:00
12:35 AM,48.2,42.8,82,29.97,10.0,ENE,8.1,-,N/A,,Clear,60,2013-09-20 07:35:00
12:55 AM,48.2,42.8,82,29.97,10.0,East,6.9,-,N/A,,Clear,80,2013-09-20 07:55:00
1:15 AM,46.4,41.0,81,29.97,10.0,ENE,8.1,-,N/A,,Clear,70,2013-09-20 08:15:00
1:35 AM,46.4,42.8,87,29.96,10.0,ENE,9.2,-,N/A,,Clear,70,2013-09-20 08:35:00
1:55 AM,46.4,42.8,87,29.96,10.0,ENE,9.2,-,N/A,,Clear,70,2013-09-20 08:55:00
2:15 AM,46.4,42.8,87,29.96,10.0,ENE,9.2,-,N/A,,Clear,70,2013-09-20 09:15:00
2:35 AM,48.2,41.0,76,29.95,10.0,ENE,8.1,-,N/A,,Clear,60,2013-09-20 09:35:00
2:55 AM,46.4,41.0,81,29.95,10.0,NE,6.9,-,N/A,,Clear,50,2013-09-20 09:55:00
3:15 AM,46.4,41.0,81,29.94,10.0,ENE,8.1,-,N/A,,Clear,60,2013-09-20 10:15:00
3:35 AM,46.4,42.8,87,29.94,10.0,NE,9.2,-,N/A,,Clear,50,2013-09-20 10:35:00
3:55 AM,46.4,42.8,87,29.93,10.0,ENE,6.9,-,N/A,,Clear,60,2013-09-20 10:55:00
4:15 AM,46.4,41.0,81,29.93,10.0,ENE,8.1,-,N/A,,Clear,70,2013-09-20 11:15:00
4:35 AM,46.4,41.0,81,29.92,10.0,NE,9.2,-,N/A,,Clear,50,2013-09-20 11:35:00
4:55 AM,46.4,41.0,81,29.92,10.0,NE,10.4,-,N/A,,Clear,50,2013-09-20 11:55:00
5:15 AM,46.4,41.0,81,29.92,10.0,ENE,9.2,-,N/A,,Clear,60,2013-09-20 12:15:00
5:35 AM,44.6,39.2,81,29.91,10.0,ENE,10.4,-,N/A,,Clear,60,2013-09-20 12:35:00
5:55 AM,44.6,41.0,87,29.91,10.0,ENE,9.2,-,N/A,,Clear,70,2013-09-20 12:55:00
6:15 AM,44.6,41.0,87,29.91,10.0,ENE,10.4,-,N/A,,Clear,60,2013-09-20 13:15:00
6:35 AM,44.6,41.0,87,29.91,10.0,ENE,11.5,-,N/A,,Clear,60,2013-09-20 13:35:00
6:55 AM,46.4,42.8,87,29.91,10.0,ENE,10.4,-,N/A,,Clear,60,2013-09-20 13:55:00
7:15 AM,46.4,42.8,87,29.90,10.0,ENE,9.2,-,N/A,,Clear,70,2013-09-20 14:15:00
7:35 AM,48.2,42.8,82,29.90,10.0,ENE,8.1,-,N/A,,Clear,70,2013-09-20 14:35:00
7:55 AM,50.0,44.6,82,29.90,10.0,ENE,8.1,-,N/A,,Clear,60,2013-09-20 14:55:00
8:15 AM,51.8,44.6,76,29.90,10.0,NNE,15.0,-,N/A,,Clear,30,2013-09-20 15:15:00
8:35 AM,53.6,44.6,72,29.89,10.0,NE,15.0,-,N/A,,Clear,40,2013-09-20 15:35:00
8:55 AM,53.6,44.6,72,29.88,10.0,NE,15.0,-,N/A,,Clear,40,2013-09-20 15:55:00
9:15 AM,55.4,44.6,67,29.88,10.0,NNE,15.0,-,N/A,,Clear,30,2013-09-20 16:15:00
9:35 AM,57.2,46.4,67,29.87,10.0,NNE,15.0,-,N/A,,Clear,30,2013-09-20 16:35:00
9:55 AM,57.2,46.4,67,29.87,10.0,NE,12.7,-,N/A,,Clear,40,2013-09-20 16:55:00
10:15 AM,59.0,46.4,63,29.85,10.0,NE,15.0,-,N/A,,Clear,40,2013-09-20 17:15:00
10:35 AM,60.8,46.4,59,29.85,10.0,NNE,15.0,-,N/A,,Clear,20,2013-09-20 17:35:00
10:55 AM,62.6,46.4,55,29.84,10.0,NE,16.1,-,N/A,,Clear,40,2013-09-20 17:55:00
11:15 AM,62.6,46.4,55,29.82,10.0,NNE,13.8,-,N/A,,Clear,30,2013-09-20 18:15:00
11:35 AM,64.4,48.2,56,29.81,10.0,NE,15.0,20.7,N/A,,Clear,40,2013-09-20 18:35:00
11:55 AM,66.2,46.4,49,29.80,10.0,NNE,16.1,19.6,N/A,,Clear,30,2013-09-20 18:55:00
12:15 PM,68.0,48.2,49,29.79,10.0,NNE,15.0,-,N/A,,Clear,30,2013-09-20 19:15:00
12:35 PM,69.8,46.4,43,29.78,10.0,NNE,15.0,-,N/A,,Clear,30,2013-09-20 19:35:00
12:55 PM,69.8,46.4,43,29.77,10.0,NNE,13.8,-,N/A,,Clear,30,2013-09-20 19:55:00
1:15 PM,71.6,46.4,41,29.76,10.0,NNE,12.7,-,N/A,,Clear,20,2013-09-20 20:15:00
1:35 PM,71.6,48.2,43,29.74,10.0,NNE,12.7,-,N/A,,Clear,30,2013-09-20 20:35:00
1:55 PM,73.4,48.2,41,29.73,10.0,NNE,11.5,-,N/A,,Clear,30,2013-09-20 20:55:00
2:15 PM,73.4,48.2,41,29.72,10.0,NNE,11.5,-,N/A,,Clear,30,2013-09-20 21:15:00
2:35 PM,73.4,46.4,38,29.71,10.0,NNE,10.4,-,N/A,,Clear,20,2013-09-20 21:35:00
2:55 PM,73.4,46.4,38,29.70,10.0,NNE,11.5,-,N/A,,Clear,30,2013-09-20 21:55:00
3:15 PM,73.4,46.4,38,29.69,10.0,NNE,12.7,-,N/A,,Clear,30,2013-09-20 22:15:00
3:35 PM,75.2,46.4,36,29.68,10.0,NNE,12.7,-,N/A,,Clear,30,2013-09-20 22:35:00
3:55 PM,75.2,46.4,36,29.68,10.0,NE,13.8,17.3,N/A,,Clear,40,2013-09-20 22:55:00
4:15 PM,73.4,46.4,38,29.66,10.0,NNE,13.8,-,N/A,,Clear,30,2013-09-20 23:15:00
4:35 PM,73.4,44.6,36,29.65,10.0,NNE,13.8,-,N/A,,Clear,30,2013-09-20 23:35:00
4:55 PM,73.4,44.6,36,29.64,10.0,NNE,13.8,-,N/A,,Clear,20,2013-09-20 23:55:00
5:15 PM,71.6,44.6,38,29.64,10.0,NNE,12.7,-,N/A,,Clear,20,2013-09-21 00:15:00
5:35 PM,71.6,44.6,38,29.63,10.0,NNE,16.1,-,N/A,,Clear,30,2013-09-21 00:35:00
5:55 PM,71.6,44.6,38,29.62,10.0,NNE,13.8,-,N/A,,Clear,30,2013-09-21 00:55:00
6:15 PM,68.0,44.6,43,29.62,10.0,NNE,11.5,-,N/A,,Clear,20,2013-09-21 01:15:00
6:35 PM,66.2,44.6,46,29.62,10.0,NNE,10.4,-,N/A,,Clear,20,2013-09-21 01:35:00
6:55 PM,66.2,44.6,46,29.62,10.0,NNE,13.8,-,N/A,,Clear,30,2013-09-21 01:55:00
7:15 PM,64.4,44.6,49,29.62,10.0,NNE,12.7,17.3,N/A,,Clear,30,2013-09-21 02:15:00
7:35 PM,64.4,44.6,49,29.62,10.0,NE,11.5,20.7,N/A,,Clear,40,2013-09-21 02:35:00
7:55 PM,64.4,42.8,45,29.62,10.0,NNE,13.8,-,N/A,,Clear,30,2013-09-21 02:55:00
8:15 PM,62.6,44.6,52,29.62,10.0,NE,11.5,-,N/A,,Clear,40,2013-09-21 03:15:00
8:35 PM,62.6,44.6,52,29.62,10.0,NE,10.4,-,N/A,,Clear,40,2013-09-21 03:35:00
8:55 PM,60.8,42.8,52,29.61,10.0,NE,10.4,-,N/A,,Clear,50,2013-09-21 03:55:00
9:15 PM,60.8,44.6,55,29.61,10.0,NE,12.7,-,N/A,,Clear,40,2013-09-21 04:15:00
9:35 PM,59.0,42.8,55,29.60,10.0,ENE,9.2,-,N/A,,Clear,60,2013-09-21 04:35:00
9:55 PM,59.0,44.6,59,29.60,10.0,NE,9.2,-,N/A,,Clear,50,2013-09-21 04:55:00
10:15 PM,60.8,44.6,55,29.59,10.0,NNE,12.7,-,N/A,,Clear,30,2013-09-21 05:15:00
10:35 PM,60.8,44.6,55,29.59,10.0,NNE,15.0,-,N/A,,Clear,30,2013-09-21 05:35:00
10:55 PM,60.8,44.6,55,29.59,10.0,NNE,13.8,-,N/A,,Clear,30,2013-09-21 05:55:00
11:15 PM,60.8,42.8,52,29.58,10.0,NNE,15.0,-,N/A,,Clear,30,2013-09-21 06:15:00
11:35 PM,60.8,42.8,52,29.57,10.0,NNE,15.0,-,N/A,,Clear,30,2013-09-21 06:35:00
11:55 PM,59.0,44.6,59,29.58,10.0,East,5.8,-,N/A,,Clear,80,2013-09-21 06:55:00